Regional Weather Roundup
Issued by NWS

Home | Current Version | Previous Version | Graphics & Text | Print | Product List | Glossary On
Versions: 1 2 3 4 5 6 7 8 9 10 11 12 13 14 15 16 17 18 19 20 21 22 23 24 25 26 27 28 29 30 31 32 33 34 35 36 37 38 39 40 41 42 43 44 45 46 47 48 49 50
000
ASUS45 KTFX 162210
RWRMT
MONTANA REGIONAL WEATHER ROUNDUP
NATIONAL WEATHER SERVICE GREAT FALLS MT
300 PM MST TUE JAN 16 2018

NOTE: "FAIR" INDICATES FEW OR NO CLOUDS BELOW 12000 FEET WITH NO
SIGNIFICANT WEATHER AND/OR OBSTRUCTIONS TO VISIBILITY.

MTZ001>007-043-162300-
WEST OF THE DIVIDE

CITY           SKY/WX    TMP DP  RH WIND       PRES   REMARKS
KALISPELL      CLOUDY    30  26  85 NE3       30.28R
MISSOULA       PTSUNNY   37  25  61 CALM      30.27R
BUTTE          FAIR      27  18  69 S3        30.20R
MULLAN PASS    FOG       30  29  96 VRB5      30.19R VSB 1
ANACONDA         N/A     28  19  69 N8        30.22R WCI  20
DEER LODGE       N/A     27  21  80 NE5       30.26R
EUREKA           N/A     34  27  75 MISG      30.24F
HAMILTON         N/A     34  28  80 CALM      30.26S
PLAINS           N/A     38  26  62 E6        30.26R
RONAN            N/A     32  28  86 CALM      30.30R
$$

MTZ008-052>055-162300-
SOUTHWEST MONTANA

CITY           SKY/WX    TMP DP  RH WIND       PRES   REMARKS
BOZEMAN        FAIR      22  14  71 S6        30.23S WCI  14
DILLON         FAIR      36  15  42 S6        30.21S WCI  31
ENNIS          SUNNY     37  21  52 S15G24    30.24R WCI  28
W YELLOWSTONE  FAIR      23  10  58 CALM      30.29S
THREE FORKS      N/A     29  22  75 NE6       30.19R WCI  23
TWIN BRIDGES     N/A     38  15  39 CALM      30.18F
$$

MTZ009-010-012-014-046-048-049-054-162300-
EAST SLOPES AND CENTRAL MONTANA

CITY           SKY/WX    TMP DP  RH WIND       PRES   REMARKS
CUT BANK       FAIR      44  29  55 SW31G39   30.01S
GREAT FALLS    FAIR      41  24  51 SW23      30.05R
MALMSTROM AFB  FAIR      40  26  57 SW17      30.06R
HELENA         FAIR      23  19  85 NE5       30.24R
AUGUSTA        FAIR      42  27  54 W9G20     30.06R
BOWMANS CRNR   FAIR      33  21  63 S25       30.07R WCI  19
CHOTEAU          N/A     43  28  56 S6        30.06R
CONRAD           N/A     15  12  88 CALM      30.05
FAIRFIELD      FAIR      39  24  56 SW18      30.04R WCI  29
POWER          FAIR      36  25  63 SW15      30.04R WCI  27
RAYNESFORD     FAIR      51  25  35 NW6       30.05R
ULM            FAIR      40  26  58 SW12      30.08R
WHITE SULPHUR    N/A     12   9  85 CALM      30.17R
$$

MTZ011-013-016-021-045-047-050-051-162300-
NORTH CENTRAL MONTANA

CITY           SKY/WX    TMP DP  RH WIND       PRES   REMARKS
HAVRE          FAIR      -8 -15  71 W5        30.13S
LEWISTOWN      FAIR      40  15  36 E7        30.03F
N BAR RANCH    FAIR      37  10  32 SE3       30.07F
CHINOOK          N/A     -6 -15  65 CALM      30.15S
DENTON         FAIR      29  19  65 MISG      30.01S
GRASS RANGE    FAIR      36   9  32 E3        30.01F
STANFORD       FAIR      44  25  47 E5        30.03S
WINIFRED       FAIR      34   4  27 NW3       30.03F
$$

MTZ017>020-022>027-061-062-162300-
NORTHEAST MONTANA

CITY           SKY/WX    TMP DP  RH WIND       PRES   REMARKS
GLASGOW        FAIR       8   0  69 E14       30.16F WCI  -8
GLENDIVE       FAIR      11   1  64 SW13      30.23F WCI  -4
JORDAN           N/A     15   6  67 S8        30.14F WCI   4
MALTA          SUNNY     -6 -13  71 CALM      30.17F
SIDNEY         FAIR      11  -1  58 S12       30.26F WCI  -3
WOLF POINT     FAIR       4  -7  60 E3        30.23F
PLENTYWOOD       N/A      7  -2  66 CALM      30.19F
POPLAR           N/A      3  -8  60 NE5       30.24F
SCOBEY           N/A      9  -4  55 S1        30.12F
$$

MTZ028>42-056>058-162300-
SOUTHCENTRAL AND SOUTHEAST MONTANA

CITY           SKY/WX    TMP DP  RH WIND       PRES   REMARKS
BAKER          FAIR      20   3  48 VRB5      30.22F
BILLINGS       FAIR      33  14  45 SW16      30.14S WCI  23
LIVINGSTON     FAIR      31  18  58 NW23      30.14R WCI  18
MILES CITY     FAIR      -1  -8  72 NE5       30.24F
BIG TIMBER     SUNNY     19  16  86 E5        30.17R
EKALAKA          N/A     23   2  40 SE9       30.15F WCI  13
FORSYTH          N/A     -2  -8  78 E3        30.21F
HARLOWTON      FAIR      26  17  68 SE6       30.10S WCI  19
LAUREL           N/A     34  12  40 SW12      30.16S WCI  25
$$

REGIONAL REPORTS...DAKOTAS

CITY           SKY/WX    TMP DP  RH WIND       PRES   REMARKS
WILLISTON      FAIR      12  -2  53 S3        30.28F
MINOT          FAIR      13  -4  46 S15G23    30.29F WCI  -3
DICKINSON      FAIR      15  -1  49 S14       30.27S WCI   0
BEACH          FAIR      14   0  52 S15       30.25F WCI  -1
CROSBY         FAIR      10  -2  56 S17       30.23S WCI  -7
TIOGA          FAIR       7  -4  61 S5        30.26F
WATFORD CITY   FAIR      16   0  48 S6        30.27F WCI   7
BISMARCK       FAIR      10  -3  55 SE6       30.45F WCI   0
GRAND FORKS    MOCLDY     6  -2  69 S17       30.51F WCI -13
FARGO          FAIR       4  -5  66 S15       30.58F WCI -14
RAPID CITY     FAIR      27   8  44 SE13      30.30F WCI  16
$$

REGIONAL REPORTS...WYOMING/IDAHO/WASHINGTON

CITY           SKY/WX    TMP DP  RH WIND       PRES   REMARKS
GILLETTE         N/A    N/A N/A N/A MISG      30.20F
SHERIDAN       FAIR      16   3  56 CALM      30.16S
BUFFALO WY     FAIR      35  14  42 SE9       30.14S WCI  28
CODY           FAIR      25  16  68 NE5       30.17
YELLOWSTONE LA   N/A     15   5  64 CALM      30.29S
IDAHO FALLS    FAIR      37  26  64 N6        30.30S
SALMON         CLOUDY    30  24  78 CALM      30.36R
BOISE          FAIR      43  37  79 SW9       30.31S
SPOKANE        PTSUNNY   38  37  97 S6        30.25R FOG
$$

REGIONAL REPORTS...ALBERTA

CITY           SKY/WX    TMP DP  RH WIND       PRES   REMARKS
CALGARY        MOSUNNY   43  27  52 VRB2      29.84F
CARDSTON         N/A     46  28  49 MISG        N/A
EDMONTON       CLEAR     27  12  54 SE3       29.81F
FORT MCMURRAY  CLEAR     16   7  67 E7        29.80F WCI   6
HIGH LEVEL     PTCLDY    16  10  79 SE8       29.73F WCI   5
LETHBRIDGE     MOSUNNY   43  30  61 W22G29    29.96R
LLOYDMINSTER   PTCLDY    18   9  68 S6        29.85F WCI   9
MEDICINE HAT   MOSUNNY   30  21  69 SW16      29.96R WCI  19
PINCHER CREEK  SUNNY     41  28  60 W28G40    29.99S
WATERTON GATE    N/A     43  27  52 SW24G35     N/A
$$

REGIONAL REPORTS...SASKATCHEWAN

CITY           SKY/WX    TMP DP  RH WIND       PRES   REMARKS
CORONACH         N/A     10   1  67 SE8         N/A  WCI  -1
CYPRESS HILLS    N/A     28  10  47 SW14G20     N/A  WCI  17
ESTEVAN        PTCLDY    12  -2  52 S13       30.22F WCI  -3
MOOSE JAW        N/A     28   7  40 SE9G17      N/A  WCI  20
REGINA         PTCLDY    16   5  62 SE16      30.09F WCI   0
ROCKGLEN         N/A     12   3  67 S18         N/A  WCI  -5
SASKATOON      CLEAR     21   7  53 S14       29.99F WCI   8
SWIFT CURRENT  SUNNY     21   5  49 SW18G25   29.96F WCI   6
$$



USA.gov is the U.S. government's official web portal to all federal, state and local government web resources and services.